[[{"header":{"parameterUnit":"m.s-1","parameterCategory":1,"la1":30.2991,"la2":30.254,"lo1":-89.0895,"lo2":-89.0444,"dy":0.0017,"dx":0.0017,"nx":28,"ny":28,"refTime":"2026-02-01T03:00:00:Z","depth":0,"parameterNumber":2,"parameterNumberName":"U-component_of_WINDS"},"data":[0,0,0,0,0,0,0,0,0,0,0,0,0,0,0,0,0,0,0,0,0,0,0,0,0,0,0,0,0,0,0,0,0,0,0,0,0,0,0,0,0,0,0,0,0,0,0,0,0,0,0,0,0,0,0,0,0,0,4.1667,4.1668,0,4.1727,4.1728,4.1728,4.1683,4.1681,4.1679,4.1677,4.1735,4.1738,4.1742,0,0,0,0,0,0,0,0,0,0,0,0,0,4.1514,4.1517,4.1667,4.1668,4.1669,4.1727,4.1728,4.1728,4.1683,4.1681,4.1678,4.1676,4.1734,4.1738,4.1742,0,0,0,0,0,0,0,0,0,0,0,0,0,4.1577,4.1518,4.1667,4.1653,4.1653,4.1727,4.1728,4.1729,4.1684,4.1681,4.1678,4.1675,4.1733,4.1738,4.1743,4.1833,0,0,4.1758,4.176,0,0,0,0,0,0,0,0,4.1574,4.1583,4.1655,4.1654,4.1654,4.1694,4.1695,4.1763,4.1684,4.1672,4.1677,4.1673,4.1724,4.1729,4.1747,4.1835,4.1838,4.1759,4.1762,4.1764,4.1765,0,0,0,0,0,0,0,4.157,4.158,4.1691,4.1656,4.1655,4.1644,4.165,4.1708,4.1713,4.1673,4.1669,4.1677,4.1723,4.1742,4.1748,4.1839,4.1758,4.1763,4.1766,4.1768,4.2006,4.2009,0,0,0,0,0,0,4.1567,4.1577,4.1689,4.1693,4.1606,4.1649,4.1655,4.1684,4.1713,4.1714,4.168,4.1675,4.1735,4.1742,4.175,4.1858,4.1764,4.1769,4.1771,4.2003,4.2007,4.201,0,0,0,0,0,0,4.1564,4.1577,4.1687,4.1634,4.1647,4.1655,4.1688,4.1687,4.1706,4.1718,4.1719,4.1698,4.1733,4.1743,4.1813,4.1859,4.1771,4.1775,4.1999,4.2004,4.2008,4.2074,0,0,0,0,0,0,4.1559,4.1576,4.1611,4.1635,4.165,4.1749,4.169,4.169,4.1715,4.171,4.1736,4.1737,4.1731,4.1806,4.1818,4.1865,4.1779,4.1995,4.2001,4.2007,4.2068,4.2081,4.2092,0,0,0,0,0,4.1554,4.1626,4.1613,4.1626,4.1693,4.1752,4.176,4.1753,4.1719,4.1754,4.1762,4.1736,4.1853,4.1813,4.1827,4.1876,4.1992,4.1999,4.2006,4.2063,4.2078,4.2092,0,0,0,0,0,0,4.1605,4.1629,4.1614,4.1696,4.1723,4.1744,4.1787,4.177,4.1805,4.1798,4.1787,4.1793,4.1867,4.1879,4.1834,4.1965,4.1917,4.1927,4.1955,4.197,4.1982,4.1977,4.1784,0,0,0,0,0,4.1626,4.1672,4.169,4.1761,4.1775,4.1779,4.1804,4.1797,4.1823,4.1834,4.1847,4.1873,4.1915,4.1943,4.1983,4.207,4.2075,4.2111,4.2122,4.2132,4.2141,4.2189,4.2205,4.2034,4.2034,4.2034,0,0,4.1669,4.1688,4.1717,4.1772,4.1791,4.1839,4.1789,4.1841,4.1876,4.1841,4.1909,4.192,4.1948,4.2028,4.2063,4.2039,4.219,4.2142,4.2149,4.2153,4.2198,4.2214,4.2229,4.204,4.2039,4.2038,0,0,4.1772,4.1791,4.1853,4.1874,4.1905,4.1908,4.1923,4.1948,4.1954,4.2022,4.1997,4.2039,4.2112,4.2134,4.2155,4.227,4.2248,4.2283,4.2345,4.2392,4.2405,4.2417,4.2458,4.2473,4.2292,4.2292,4.2292,0,4.1822,4.1893,4.1886,4.1941,4.1966,4.1939,4.2001,4.2022,4.2064,4.2081,4.2054,4.2147,4.2164,4.2249,4.2278,4.2295,4.2312,4.2279,4.2404,4.2416,4.2427,4.2466,4.2481,4.2296,4.2296,4.2295,4.2295,0,4.1953,4.2003,4.2049,4.2092,4.2122,4.2181,4.2182,4.2214,4.2205,4.221,4.2281,4.2301,4.2345,4.2365,4.2355,4.2449,4.2433,4.2406,4.2356,4.2447,4.2484,4.2499,4.2302,4.2301,4.2299,4.2298,0,0,4.2087,4.2128,4.2145,4.2165,4.2198,4.2237,4.2294,4.2339,4.2366,4.2397,4.2445,4.2509,4.2484,4.2508,4.2501,4.2543,4.2633,4.251,4.251,4.2532,4.2738,4.2758,4.2776,4.262,4.2623,4.2625,4.2736,0,4.2192,4.2293,4.229,4.2384,4.2431,4.2407,4.2457,4.2484,4.2491,4.2532,4.254,4.2586,4.255,4.2564,4.2604,4.2614,4.2674,4.2606,4.2664,4.2666,4.2657,4.2795,4.2816,4.2919,4.275,4.2752,4.2754,0,4.2327,4.2364,4.2464,4.2492,4.2512,4.2557,4.2598,4.2638,4.2667,4.267,4.2698,4.2685,4.2744,4.2695,4.2776,4.273,4.2754,4.2762,4.2766,4.277,4.2715,4.2802,4.2952,4.2967,4.2777,4.2775,4.2773,0,4.2415,4.249,4.2559,4.2577,4.2612,4.2645,4.2661,4.2688,4.2715,4.2751,4.2769,4.2812,4.2835,4.2868,4.2867,4.2831,4.295,4.29,4.2953,4.2953,4.2978,4.2976,4.3133,4.2995,4.2995,4.2994,4.2994,0,4.2532,4.2594,4.26,4.2642,4.2711,4.2707,4.2775,4.2788,4.2813,4.2857,4.2839,4.2882,4.2879,4.2922,4.2922,4.2989,4.3,4.3003,4.3002,4.3005,4.3004,4.3019,4.3011,4.2998,4.2998,4.2997,4.2996,0,4.2641,4.2648,4.2722,4.275,4.2759,4.2808,4.2832,4.2872,4.288,4.2937,4.295,4.2961,4.3011,4.3014,4.3071,4.3071,4.3153,4.3145,4.3143,4.3142,4.3195,4.3189,4.3366,4.3389,4.3236,4.3238,4.3239,0,4.2715,4.2762,4.2796,4.2825,4.2844,4.2891,4.2919,4.2918,4.2949,4.2988,4.3024,4.3072,4.3111,4.3192,4.3204,4.3249,4.3241,4.33,4.3247,4.3248,4.3241,4.3238,4.3243,4.3309,4.3311,4.3312,4.3313,0,4.2845,4.2847,4.2889,4.2934,4.2969,4.3003,4.3036,4.3061,4.3063,4.3099,4.315,4.318,4.324,4.3289,4.3332,4.3348,4.3332,4.333,4.3345,4.3347,4.3344,4.3346,4.3171,4.3326,4.3325,4.3324,4.3323,4.3322,4.2938,4.298,4.3011,4.3059,4.3084,4.3115,4.3155,4.3168,4.3212,4.3261,4.3257,4.3315,4.3345,4.3402,4.3422,4.3467,4.3446,4.3467,4.3473,4.3478,4.3483,4.3339,4.3475,4.3474,4.3474,4.3474,4.3473,0,4.3067,4.3087,4.3131,4.3178,4.3217,4.32,4.3235,4.3268,4.3319,4.3349,4.3388,4.3448,4.3496,4.3514,4.356,4.3593,4.3587,4.3605,4.3602,4.3606,4.3499,4.3481,4.361,4.361,4.361,4.3609,4.3609,4.3609,4.3139,4.3208,4.3214,4.3296,4.3315,4.3372,4.3393,4.3422,4.3447,4.3515,4.3555,4.3567,4.3592,4.3641,4.3684,4.3688,4.3706,4.3728,4.3729,4.3627,4.3614,4.36,4.3584,4.3732,4.3732,4.3832,4.3833,4.3834]},{"header":{"parameterUnit":"m.s-1","parameterCategory":1,"la1":30.2991,"la2":30.254,"lo1":-89.0895,"lo2":-89.0444,"dy":0.0017,"dx":0.0017,"nx":28,"ny":28,"refTime":"2026-02-01T03:00:00:Z","depth":0,"parameterNumber":3,"parameterNumberName":"V-component_of_WINDS"},"data":[0,0,0,0,0,0,0,0,0,0,0,0,0,0,0,0,0,0,0,0,0,0,0,0,0,0,0,0,0,0,0,0,0,0,0,0,0,0,0,0,0,0,0,0,0,0,0,0,0,0,0,0,0,0,0,0,0,0,-8.2108,-8.2111,0,-8.2328,-8.233,-8.2332,-8.2253,-8.2248,-8.2243,-8.2239,-8.2459,-8.2469,-8.2479,0,0,0,0,0,0,0,0,0,0,0,0,0,-8.1618,-8.1627,-8.2108,-8.2111,-8.2114,-8.2327,-8.233,-8.2333,-8.2254,-8.2248,-8.2242,-8.2236,-8.2455,-8.2468,-8.248,0,0,0,0,0,0,0,0,0,0,0,0,0,-8.1833,-8.163,-8.2108,-8.21,-8.2102,-8.2327,-8.233,-8.2334,-8.2255,-8.2248,-8.2241,-8.2234,-8.2451,-8.2467,-8.2482,-8.2726,0,0,-8.253,-8.2537,0,0,0,0,0,0,0,0,-8.1821,-8.1851,-8.2098,-8.2101,-8.2103,-8.2256,-8.2238,-8.2465,-8.2257,-8.2197,-8.2239,-8.223,-8.2397,-8.2417,-8.2474,-8.2737,-8.2746,-8.2531,-8.2541,-8.2548,-8.2552,0,0,0,0,0,0,0,-8.1806,-8.1841,-8.2195,-8.2102,-8.2105,-8.2085,-8.2107,-8.2281,-8.2335,-8.2201,-8.2196,-8.2224,-8.2397,-8.2459,-8.2478,-8.2749,-8.2531,-8.2545,-8.2554,-8.2561,-8.3224,-8.3232,0,0,0,0,0,0,-8.1791,-8.183,-8.2188,-8.2201,-8.1941,-8.2099,-8.2125,-8.2214,-8.2333,-8.2345,-8.223,-8.2219,-8.2436,-8.246,-8.2486,-8.278,-8.2547,-8.2562,-8.2571,-8.3216,-8.3226,-8.3235,0,0,0,0,0,0,-8.1781,-8.1824,-8.2179,-8.2014,-8.2058,-8.2116,-8.2217,-8.2222,-8.2284,-8.2355,-8.2364,-8.2283,-8.2431,-8.2464,-8.2668,-8.2787,-8.2569,-8.2583,-8.3206,-8.3219,-8.3231,-8.3371,0,0,0,0,0,0,-8.1767,-8.182,-8.1914,-8.2017,-8.2067,-8.2359,-8.2224,-8.2232,-8.2312,-8.23,-8.2407,-8.2418,-8.2428,-8.2645,-8.2683,-8.2804,-8.2596,-8.3196,-8.3212,-8.3227,-8.3356,-8.3387,-8.3413,0,0,0,0,0,-8.175,-8.1944,-8.192,-8.1963,-8.2186,-8.2366,-8.2394,-8.2403,-8.2322,-8.2417,-8.2462,-8.2415,-8.2768,-8.2666,-8.2709,-8.2837,-8.3189,-8.3208,-8.3226,-8.3343,-8.3381,-8.3412,0,0,0,0,0,0,-8.1852,-8.1957,-8.1931,-8.2165,-8.2257,-8.2352,-8.2472,-8.2442,-8.2557,-8.2541,-8.2545,-8.257,-8.2781,-8.2829,-8.2714,-8.308,-8.2966,-8.2994,-8.3041,-8.3077,-8.3105,-8.3089,-8.2609,0,0,0,0,0,-8.1903,-8.2041,-8.2124,-8.2322,-8.237,-8.2414,-8.2492,-8.2491,-8.2586,-8.2624,-8.2684,-8.2777,-8.2909,-8.2995,-8.312,-8.3363,-8.3385,-8.3472,-8.35,-8.3523,-8.3547,-8.3679,-8.3719,-8.3296,-8.3296,-8.3295,0,0,-8.2007,-8.2081,-8.2168,-8.2345,-8.2416,-8.2559,-8.2447,-8.2601,-8.2707,-8.2647,-8.2844,-8.2891,-8.2995,-8.322,-8.3321,-8.3266,-8.3669,-8.3547,-8.3564,-8.3576,-8.3702,-8.3742,-8.3778,-8.3308,-8.3306,-8.3304,0,0,-8.227,-8.234,-8.2514,-8.2588,-8.2698,-8.2726,-8.2767,-8.2868,-8.2897,-8.3095,-8.3054,-8.3178,-8.3405,-8.3481,-8.355,-8.3844,-8.3804,-8.3884,-8.4032,-8.4161,-8.4195,-8.4224,-8.4329,-8.4367,-8.3908,-8.3908,-8.3908,0,-8.2386,-8.2599,-8.2606,-8.2766,-8.2845,-8.2799,-8.2974,-8.3045,-8.319,-8.3245,-8.3182,-8.3467,-8.3533,-8.3775,-8.3847,-8.3904,-8.3951,-8.3872,-8.419,-8.4219,-8.4247,-8.4347,-8.4387,-8.3917,-8.3916,-8.3915,-8.3914,0,-8.2736,-8.2885,-8.3012,-8.3155,-8.3248,-8.3415,-8.3446,-8.3539,-8.353,-8.3564,-8.3767,-8.3845,-8.3986,-8.4043,-8.4035,-8.4285,-8.4248,-8.4187,-8.4073,-8.4296,-8.4391,-8.4429,-8.393,-8.3927,-8.3924,-8.3922,0,0,-8.3069,-8.3215,-8.3262,-8.3327,-8.3445,-8.356,-8.3724,-8.3864,-8.3944,-8.4046,-8.4183,-8.4377,-8.4323,-8.4401,-8.44,-8.4514,-8.4742,-8.4439,-8.4442,-8.4493,-8.5023,-8.5068,-8.5112,-8.4717,-8.4724,-8.473,-8.5014,0,-8.3342,-8.3632,-8.3644,-8.3908,-8.4046,-8.4005,-8.4148,-8.4236,-8.4272,-8.4394,-8.4433,-8.4571,-8.4488,-8.4535,-8.4645,-8.4691,-8.4849,-8.4671,-8.4844,-8.4851,-8.482,-8.5161,-8.5209,-8.5473,-8.5051,-8.5057,-8.5062,0,-8.3699,-8.3814,-8.4093,-8.4193,-8.4251,-8.438,-8.4509,-8.4626,-8.4725,-8.4743,-8.4832,-8.4815,-8.4983,-8.4863,-8.5093,-8.4972,-8.5044,-8.5077,-8.5088,-8.5104,-8.497,-8.5187,-8.5558,-8.5597,-8.512,-8.5115,-8.5111,0,-8.3915,-8.4139,-8.4335,-8.4392,-8.4513,-8.4605,-8.466,-8.4751,-8.4835,-8.4947,-8.5001,-8.5131,-8.5203,-8.5303,-8.5322,-8.5233,-8.5554,-8.5435,-8.5573,-8.5573,-8.5642,-8.5637,-8.603,-8.5688,-8.5688,-8.5687,-8.5686,0,-8.4219,-8.4391,-8.4434,-8.4555,-8.4746,-8.4757,-8.4946,-8.4994,-8.5076,-8.5205,-8.5176,-8.5297,-8.5315,-8.544,-8.5456,-8.5645,-8.5677,-8.5696,-8.5698,-8.5699,-8.5697,-8.5746,-8.5728,-8.5698,-8.5695,-8.5693,-8.5691,0,-8.4492,-8.4528,-8.4739,-8.4837,-8.4866,-8.5003,-8.5087,-8.5202,-8.5236,-8.5399,-8.5438,-8.5491,-8.5637,-8.5666,-8.5838,-8.5849,-8.6073,-8.6057,-8.6041,-8.6039,-8.6176,-8.6163,-8.6613,-8.6673,-8.6292,-8.6296,-8.6299,0,-8.4684,-8.4815,-8.4929,-8.5014,-8.5073,-8.521,-8.5296,-8.5312,-8.5402,-8.5525,-8.5626,-8.5769,-8.5884,-8.6119,-8.6172,-8.6304,-8.6291,-8.644,-8.631,-8.6307,-8.6294,-8.6286,-8.6299,-8.6464,-8.6468,-8.6472,-8.6474,0,-8.502,-8.5032,-8.5157,-8.529,-8.5393,-8.5497,-8.5597,-8.5667,-8.5697,-8.5799,-8.5949,-8.6039,-8.6216,-8.6359,-8.6491,-8.6545,-8.6516,-8.6515,-8.6554,-8.6556,-8.6541,-8.6552,-8.6109,-8.6504,-8.6501,-8.6499,-8.6498,-8.6496,-8.5259,-8.5374,-8.5473,-8.5613,-8.569,-8.5784,-8.5897,-8.5946,-8.6072,-8.6219,-8.622,-8.6384,-8.648,-8.6654,-8.6718,-8.6845,-8.6798,-8.6855,-8.6869,-8.6883,-8.6896,-8.6521,-8.6869,-8.6868,-8.6868,-8.6867,-8.6866,0,-8.5594,-8.5656,-8.5785,-8.5926,-8.6037,-8.6,-8.6109,-8.6203,-8.6349,-8.6441,-8.6556,-8.6729,-8.6867,-8.6932,-8.7069,-8.7159,-8.7148,-8.7194,-8.7187,-8.7201,-8.693,-8.6883,-8.72,-8.72,-8.72,-8.72,-8.72,-8.72,-8.5781,-8.5976,-8.5999,-8.6231,-8.6291,-8.6453,-8.6518,-8.6604,-8.6678,-8.6873,-8.6989,-8.703,-8.7112,-8.7254,-8.738,-8.7395,-8.7447,-8.7499,-8.7508,-8.7254,-8.722,-8.7187,-8.7143,-8.751,-8.7511,-8.7768,-8.7771,-8.7773]}]]